When you browse on this site, cookies collect data to enhance your experience and personalize the content and advertising you see.
Visit our Privacy Policy to learn more. By continuing to use the site, you agree to this use of cookies and data.
  • în România
  • Lista ţărilor
  • Pe 7 zile
  • Temperatura apei
  • Hartă satelitară
  • Meteo pe hartă
  • Widget-uri
  • user-avatar
    Intrare

    Meteo pe oră la Shinkovo

    Astăzi, 21 Martie, Joi

    Timp Temperatura Precipitaţii Vânt Presiune Umiditate
    00:00 -1°C° 0.2 mm 3 m/s 744 mmHg 86%
    01:00 -1°C° 0.2 mm 3 m/s 744 mmHg 88%
    02:00 -2°C° 0 mm 3 m/s 743 mmHg 91%
    03:00 -1°C° 0.3 mm 3 m/s 743 mmHg 92%
    04:00 -1°C° 0.3 mm 3 m/s 743 mmHg 92%
    05:00 -1°C° 0.3 mm 3 m/s 743 mmHg 92%
    06:00 0°C° 0.1 mm 3 m/s 743 mmHg 91%
    07:00 0°C° 0.1 mm 3 m/s 743 mmHg 90%
    08:00 0°C° 0 mm 3 m/s 744 mmHg 89%
    09:00 0°C° 0 mm 3 m/s 744 mmHg 88%
    10:00 0°C° 0 mm 3 m/s 744 mmHg 87%
    11:00 +1°C° 0 mm 3 m/s 744 mmHg 86%
    12:00 +1°C° 0 mm 3 m/s 744 mmHg 85%
    13:00 +2°C° 0 mm 3 m/s 744 mmHg 83%
    14:00 +2°C° 0 mm 3 m/s 744 mmHg 82%
    15:00 +3°C° 0 mm 3 m/s 744 mmHg 83%
    16:00 +4°C° 0 mm 2 m/s 744 mmHg 83%
    17:00 +4°C° 0 mm 2 m/s 744 mmHg 84%
    18:00 +3°C° 0 mm 2 m/s 744 mmHg 86%
    19:00 +2°C° 0 mm 2 m/s 744 mmHg 88%
    20:00 +1°C° 0 mm 2 m/s 743 mmHg 91%
    21:00 +1°C° 0 mm 2 m/s 743 mmHg 90%
    22:00 +2°C° 0 mm 2 m/s 742 mmHg 90%
    23:00 +1°C° 0 mm 3 m/s 742 mmHg 90%

    Mâine, 22 Martie, Vineri

    Timp Temperatura Precipitaţii Vânt Presiune Umiditate
    00:00 +1°C° 0.2 mm 3 m/s 741 mmHg 91%
    01:00 +1°C° 0.2 mm 3 m/s 740 mmHg 92%
    02:00 +1°C° 0.2 mm 4 m/s 739 mmHg 92%
    03:00 +1°C° 1.3 mm 4 m/s 739 mmHg 93%
    04:00 +1°C° 1.3 mm 4 m/s 738 mmHg 94%
    05:00 +1°C° 1.3 mm 4 m/s 737 mmHg 95%
    06:00 +1°C° 1.3 mm 5 m/s 737 mmHg 91%
    07:00 -1°C° 1.3 mm 6 m/s 738 mmHg 87%
    08:00 -1°C° 1.3 mm 6 m/s 738 mmHg 83%
    09:00 -2°C° 0.1 mm 7 m/s 739 mmHg 80%
    10:00 -2°C° 0.1 mm 7 m/s 740 mmHg 76%
    11:00 -3°C° 0.1 mm 7 m/s 740 mmHg 73%
    12:00 -3°C° 0.2 mm 7 m/s 741 mmHg 74%
    13:00 -3°C° 0.2 mm 7 m/s 741 mmHg 76%
    14:00 -3°C° 0.2 mm 6 m/s 742 mmHg 78%
    15:00 -3°C° 0.2 mm 6 m/s 742 mmHg 79%
    16:00 -3°C° 0.2 mm 6 m/s 743 mmHg 81%
    17:00 -3°C° 0.2 mm 6 m/s 743 mmHg 82%
    18:00 -3°C° 0.2 mm 6 m/s 744 mmHg 83%
    19:00 -2°C° 0.2 mm 6 m/s 744 mmHg 84%
    20:00 -2°C° 0.2 mm 7 m/s 745 mmHg 85%
    21:00 -2°C° 0.1 mm 6 m/s 745 mmHg 85%
    22:00 -2°C° 0.1 mm 6 m/s 746 mmHg 85%
    23:00 -1°C° 0.1 mm 5 m/s 746 mmHg 86%

    Poimâine, 23 Martie, Sâmbătă

    Timp Temperatura Precipitaţii Vânt Presiune Umiditate
    00:00 -2°C° 0.1 mm 5 m/s 747 mmHg 86%
    01:00 -2°C° 0.1 mm 4 m/s 747 mmHg 87%
    02:00 -2°C° 0.1 mm 4 m/s 748 mmHg 88%
    03:00 -2°C° 0 mm 4 m/s 748 mmHg 89%
    04:00 -1°C° 0 mm 3 m/s 748 mmHg 90%
    05:00 -2°C° 0 mm 3 m/s 749 mmHg 92%
    06:00 -2°C° 0 mm 3 m/s 749 mmHg 91%
    07:00 -2°C° 0 mm 2 m/s 749 mmHg 91%
    08:00 -2°C° 0 mm 2 m/s 749 mmHg 91%
    09:00 +1°C° 0 mm 1 m/s 749 mmHg 88%
    10:00 +1°C° 0 mm 1 m/s 749 mmHg 86%
    11:00 +2°C° 0 mm 1 m/s 749 mmHg 84%
    12:00 +3°C° 0 mm 1 m/s 748 mmHg 82%
    13:00 +3°C° 0 mm 1 m/s 748 mmHg 80%
    14:00 +3°C° 0 mm 2 m/s 747 mmHg 78%
    15:00 +3°C° 0 mm 2 m/s 747 mmHg 80%
    16:00 +3°C° 0 mm 2 m/s 746 mmHg 82%
    17:00 +3°C° 0 mm 2 m/s 746 mmHg 84%
    18:00 +1°C° 0 mm 3 m/s 745 mmHg 85%
    19:00 0°C° 0 mm 3 m/s 744 mmHg 85%
    20:00 -1°C° 0 mm 4 m/s 744 mmHg 85%
    21:00 -1°C° 0.4 mm 4 m/s 743 mmHg 83%
    22:00 -1°C° 0.4 mm 4 m/s 742 mmHg 80%
    23:00 0°C° 0.4 mm 4 m/s 742 mmHg 77%

    24 Martie, Duminică

    Timp Temperatura Precipitaţii Vânt Presiune Umiditate
    00:00 0°C° 1.1 mm 4 m/s 741 mmHg 81%
    01:00 0°C° 1.1 mm 4 m/s 741 mmHg 85%
    02:00 -1°C° 1.1 mm 4 m/s 740 mmHg 89%
    03:00 0°C° 0 mm 3 m/s 740 mmHg 91%
    04:00 0°C° 0 mm 3 m/s 740 mmHg 94%
    05:00 +1°C° 0 mm 2 m/s 740 mmHg 96%
    06:00 0°C° 0 mm 3 m/s 740 mmHg 94%
    07:00 0°C° 0 mm 3 m/s 740 mmHg 92%
    08:00 0°C° 0 mm 3 m/s 740 mmHg 89%
    09:00 0°C° 0.1 mm 4 m/s 740 mmHg 84%
    10:00 +1°C° 0.1 mm 5 m/s 740 mmHg 79%
    11:00 +1°C° 0.1 mm 5 m/s 740 mmHg 73%
    12:00 +1°C° 0.1 mm 6 m/s 740 mmHg 69%
    13:00 +1°C° 0.1 mm 6 m/s 740 mmHg 65%
    14:00 +1°C° 0.1 mm 6 m/s 740 mmHg 61%
    15:00 +1°C° 0.1 mm 5 m/s 740 mmHg 64%
    16:00 0°C° 0.1 mm 4 m/s 740 mmHg 67%
    17:00 -1°C° 0.1 mm 4 m/s 740 mmHg 70%
    18:00 -1°C° 0 mm 3 m/s 740 mmHg 73%
    19:00 -2°C° 0 mm 3 m/s 740 mmHg 76%
    20:00 -4°C° 0 mm 3 m/s 740 mmHg 80%
    21:00 -4°C° 0 mm 3 m/s 740 mmHg 81%
    22:00 -4°C° 0 mm 3 m/s 740 mmHg 81%
    23:00 -5°C° 0 mm 3 m/s 740 mmHg 82%

    25 Martie, Luni

    Timp Temperatura Precipitaţii Vânt Presiune Umiditate
    00:00 -5°C° 0 mm 3 m/s 740 mmHg 82%
    01:00 -5°C° 0 mm 3 m/s 740 mmHg 83%
    02:00 -6°C° 0 mm 3 m/s 740 mmHg 83%
    03:00 -5°C° 0 mm 2 m/s 740 mmHg 84%
    04:00 -5°C° 0 mm 2 m/s 740 mmHg 86%
    05:00 -6°C° 0 mm 2 m/s 740 mmHg 87%
    06:00 -5°C° 0 mm 2 m/s 740 mmHg 83%
    07:00 -4°C° 0 mm 2 m/s 740 mmHg 79%
    08:00 -3°C° 0 mm 2 m/s 740 mmHg 75%
    09:00 -1°C° 0 mm 2 m/s 739 mmHg 72%
    10:00 +1°C° 0 mm 2 m/s 739 mmHg 68%
    11:00 +1°C° 0 mm 3 m/s 739 mmHg 65%
    12:00 +2°C° 0.2 mm 3 m/s 738 mmHg 65%
    13:00 +2°C° 0.2 mm 3 m/s 738 mmHg 64%
    14:00 +3°C° 0.2 mm 4 m/s 737 mmHg 64%
    15:00 +3°C° 0.4 mm 3 m/s 737 mmHg 68%
    16:00 +2°C° 0.4 mm 3 m/s 737 mmHg 72%
    17:00 +2°C° 0.4 mm 2 m/s 736 mmHg 75%
    18:00 +2°C° 0.1 mm 2 m/s 736 mmHg 78%
    19:00 +2°C° 0.1 mm 1 m/s 736 mmHg 81%
    20:00 +1°C° 0.1 mm 1 m/s 736 mmHg 83%
    21:00 0°C° 0 mm 1 m/s 736 mmHg 84%
    22:00 0°C° 0 mm 1 m/s 736 mmHg 85%
    23:00 -1°C° 0 mm 1 m/s 735 mmHg 86%

    26 Martie, Marţi

    Timp Temperatura Precipitaţii Vânt Presiune Umiditate
    00:00 -1°C° 0 mm 1 m/s 735 mmHg 88%
    01:00 -1°C° 0 mm 1 m/s 735 mmHg 89%
    02:00 -4°C° 0 mm 2 m/s 735 mmHg 91%
    03:00 -3°C° 0 mm 2 m/s 735 mmHg 92%
    04:00 -4°C° 0 mm 3 m/s 736 mmHg 93%
    05:00 -4°C° 0 mm 3 m/s 736 mmHg 94%
    06:00 -4°C° 0 mm 3 m/s 736 mmHg 92%
    07:00 -3°C° 0 mm 4 m/s 737 mmHg 89%
    08:00 -3°C° 0 mm 4 m/s 737 mmHg 87%
    09:00 -2°C° 0 mm 4 m/s 738 mmHg 81%
    10:00 -1°C° 0 mm 4 m/s 738 mmHg 76%
    11:00 0°C° 0 mm 4 m/s 738 mmHg 70%
    12:00 0°C° 0 mm 4 m/s 739 mmHg 67%
    13:00 0°C° 0 mm 4 m/s 739 mmHg 65%
    14:00 +1°C° 0 mm 4 m/s 739 mmHg 62%
    15:00 0°C° 0 mm 4 m/s 740 mmHg 65%
    16:00 +1°C° 0 mm 3 m/s 740 mmHg 68%
    17:00 0°C° 0 mm 3 m/s 741 mmHg 70%
    18:00 -1°C° 0 mm 3 m/s 741 mmHg 74%
    19:00 -2°C° 0 mm 3 m/s 742 mmHg 78%
    20:00 -2°C° 0 mm 3 m/s 743 mmHg 81%
    21:00 -4°C° 0 mm 3 m/s 743 mmHg 84%
    22:00 -3°C° 0 mm 2 m/s 743 mmHg 86%
    23:00 -4°C° 0 mm 2 m/s 743 mmHg 88%
    Arată mai mult